Regional Weather Roundup
Issued by NWS

Home | Current Version | Previous Version | Graphics & Text | Print | Product List | Glossary On
Versions: 1 2 3 4 5 6 7 8 9 10 11 12 13 14 15 16 17 18 19 20 21 22 23 24 25 26 27
000
ASUS45 KCYS 281410
RWRWY

WYOMING REGIONAL WEATHER ROUNDUP
NATIONAL WEATHER SERVICE CHEYENNE WY
800 AM MDT SUN MAY 28 2017

NOTE:  "FAIR" INDICATES FEW OR NO CLOUDS BELOW 12,000 FEET
WITH NO SIGNIFICANT WEATHER AND/OR OBSTRUCTIONS TO VISIBILITY.

WYZ001-281500-
YELLOWSTONE NATIONAL PARK

CITY           SKY/WX    TMP DP  RH WIND       PRES   REMARKS
LK YELLOWSTONE   N/A     36  33  89 CALM      30.43R
W YELLOWSTONE  NOT AVBL

$$
WYZ002>013-054>058-071-098>099-281500-
NORTHERN WYOMING

CITY           SKY/WX    TMP DP  RH WIND       PRES   REMARKS
JACKSON        SUNNY     39  34  81 CALM      30.40R
CODY           FAIR      57  38  48 SW6       30.29S
GREYBULL       FAIR      52  38  58 E8        30.23S
WORLAND        PTSUNNY   52  42  69 SW6       30.25R
SHERIDAN       FAIR      62  45  53 N5        30.18R
BUFFALO        FAIR      63  38  39 N14G26    30.21R
GILLETTE       FAIR      57  43  59 W12       30.18R
HULETT         FAIR      57  41  54 W7        30.17R
NEWCASTLE      FAIR      52  41  66 NW9       30.19R

$$
WYZ014>020-022>026-101>103-281500-
CENTRAL WYOMING

CITY           SKY/WX    TMP DP  RH WIND       PRES   REMARKS
BIG PINEY      FAIR      42  32  67 CALM      30.39R
PINEDALE       FAIR      41  32  70 NW6       30.39S
DUBOIS         FAIR      45  32  61 NW3       30.37R
LANDER         FAIR      50  33  52 CALM      30.29R
RIVERTON       PTSUNNY   52  36  54 W8        30.29R
CASPER         FAIR      53  37  54 W13       30.26R
DOUGLAS        FAIR      52  39  61 NW13      30.24R

$$
WYZ021-027>030-104>119-281500-
SOUTHERN WYOMING

CITY           SKY/WX    TMP DP  RH WIND       PRES   REMARKS
EVANSTON       FAIR      46  32  58 CALM      30.37R
KEMMERER         N/A     43  32  65 N8        30.38S
ROCK SPRINGS   FAIR      45  32  60 CALM      30.36R
DIXON            N/A     42  31  65 S3        30.40R
RAWLINS        FAIR      46  31  55 CALM      30.35R
SARATOGA       FAIR      43  34  70 SE9       30.37S
LARAMIE        FAIR      42  32  67 S5        30.33R
CHEYENNE       FAIR      53  32  44 NW9       30.28R
TORRINGTON     FAIR      53  41  63 NW10      30.18R
PINE BLUFFS    FAIR      55  36  47 NW16G24   30.24R

$$




USA.gov is the U.S. government's official web portal to all federal, state and local government web resources and services.